O3B MPOWER F3

Last updated on Wed Jun 24 2026 00:03:26 GMT+0000 (Coordinated Universal Time)

1 56368U 23059B 26173.40474043 -.00000023 00000+0 00000+0 0 9996 2 56368 0.0641 353.2383 0006719 96.3442 270.4929 5.00116508 54995
UTC large
Height (km)
Speed (km/s)
/
Latitude / Longitude
Inclination (degrees)
Orbital Period (minutes)
Azimuth
Elevation
Range (km)
Doppler Factor

Next 0 passes for location: London (51.5072 / 0.1276)

No passes found over London.
O3B MPOWER F3